Regional Weather Roundup
Issued by NWS

Home | Current Version | Previous Version | Graphics & Text | Print | Product List | Glossary On
Versions: 1 2 3 4 5 6 7 8 9 10 11 12 13 14 15 16 17 18 19 20 21 22 23 24 25 26 27
000
ASUS45 KBOU 251907
RWRCO

WEATHER ROUNDUP FOR COLORADO
NATIONAL WEATHER SERVICE DENVER/BOULDER CO
1200 PM MST SAT FEB 25 2017

NOTE: "FAIR" INDICATES FEW OR NO CLOUDS BELOW 12000 FEET WITH NO
SIGNIFICANT WEATHER AND/OR OBSTRUCTIONS TO VISIBILITY.

COZ001>005-013-030-031-252000-
...NORTHWEST COLORADO...

CITY           SKY/WX    TMP DP  RH WIND       PRES   REMARKS
CRAIG          CLOUDY    23   6  48 W22       29.98F WCI   8
HAYDEN         PTSUNNY   19   5  53 W13       29.96S WCI   7
MEEKER         PTSUNNY   20  11  68 SE7       29.98F WCI  11
MOUNT WERNER   NOT AVBL
STEAMBOAT SPGS CLOUDY    19   5  54 CALM      29.94F
WALDEN         NOT AVBL
$$

COZ006>008-011-252000-
...WEST CENTRAL VALLEYS...

CITY           SKY/WX    TMP DP  RH WIND       PRES   REMARKS
GRAND JUNCTION FAIR      32  11  41 NW6       30.06F WCI  26
MONTROSE       CLOUDY    31   5  33 N8        30.05F WCI  23
EAGLE          CLOUDY    25   5  42 W21G30    29.97F WCI  10
RIFLE          FAIR      24  15  68 CALM      30.04F
DELTA          CLOUDY    36   6  29 CALM      30.05F
NUCLA          FAIR      34   1  25 NW5       30.07F WCI  30
$$

COZ017>023-064>068-252000-
...SOUTHWEST COLORADO...

CITY           SKY/WX    TMP DP  RH WIND       PRES   REMARKS
DURANGO        FAIR      31   4  31 SW10G18   30.00F WCI  22
CORTEZ         PTSUNNY   35   4  27 S6        30.04F WCI  30
PAGOSA SPRINGS FAIR      28   1  32 SW14      29.97F WCI  16
TELLURIDE      CLOUDY    20   0  42 N3        29.95F
WOLF CREEK PAS CLOUDY     3   3 100 S20G30    29.87F FOG     WCI -18
$$

COZ009-010-012-014-032>034-037-058>063-252000-
...CENTRAL COLORADO...

CITY           SKY/WX    TMP DP  RH WIND       PRES   REMARKS
ASPEN          PTSUNNY   19   0  43 VRB5      29.90F WCI  12
BUENA VISTA    FAIR      26  -5  25 W20G25    29.86S WCI  12
COPPER MTN     NOT AVBL
BERTHOUD PASS  CLOUDY    -4 -15  59 MISG      29.64S HAZE
COTTONWOOD PAS PTSUNNY   18 -13  25 SW33G48   29.77F WCI  -3
GUNNISON       FAIR      10   1  67 E6        29.98F WCI   0
KREMMLING      CLOUDY    27  10  50 SW15G25   29.90F WCI  15
LEADVILLE      CLOUDY    10  -8  44 W14G24    29.79F WCI  -6
MONARCH PASS   CLOUDY     1  -4  78 SW26G40   29.86F WCI -23
SALIDA         FAIR      28 -11  18 W24G36    29.96F WCI  13
SUNLIGHT       NOT AVBL
WILKERSON PASS FAIR      14 -13  29 SW12G22   29.74S WCI   0
$$

COZ069>075-252000-
...SAN LUIS VALLEY/SANGRE DE CRISTO MOUNTAINS...

CITY           SKY/WX    TMP DP  RH WIND       PRES   REMARKS
ALAMOSA        FAIR      27   3  35 CALM      29.91F
LA VETA PASS   FAIR      21   1  42 SW30G45   29.78F WCI   3
SAGUACHE       FAIR      28  -2  26 NW16G23   29.91F WCI  17
$$

COZ035-036-038>040-252000-
...NORTHERN COLORADO FRONT RANGE...

CITY           SKY/WX    TMP DP  RH WIND       PRES   REMARKS
DENVER INTL AP PTSUNNY   33   3  28 S6        29.85F WCI  28
DMNS CITY PARK   N/A     36  -5  17 MISG      29.85F
AURORA         NOT AVBL
FRONT RANGE AP PTSUNNY   36   3  25 S9G18     29.86F
ERIE MUNI ARPT FAIR      34   9  34 N7        29.86F WCI  28
BOULDER MUN AP FAIR      30  14  51 NW3       29.86S
CENTENNIAL     FAIR      30   3  31 SE6       29.84F WCI  24
BROOMFIELD     PTSUNNY   34  10  37 W17G23    29.85F WCI  23
FORT COLLINS   FAIR      27  17  66 E6        29.89F WCI  20
LONGMONT       FAIR      37  14  39 E7        29.89F
$$

COZ041-046-047-076>085-087-088-252000-
...PIKES PEAK/PALMER DIVIDE AND SOUTHERN FOOTHILLS...

CITY           SKY/WX    TMP DP  RH WIND       PRES   REMARKS
COLO. SPRINGS  FAIR      33 -11  14 VRB3      29.86F
A. F. ACADEMY  FAIR      34  -4  19 S14G22    29.81F WCI  24
SCHRIEVER AFB  FAIR      31  -7  19 SW12G17   29.86F WCI  22
ELLICOTT       NOT AVBL
FALCON         FAIR      32  -5  20 E5        29.84F WCI  27
FORT CARSON    FAIR      36  -5  17 VRB5      29.84F
LIMON          FAIR      34   2  25 VRB3      29.88F
MONUMENT HILL  FAIR      28   3  34 SE7       29.83F WCI  21
TRINIDAD       FAIR      38   0  20 E5        29.89F
$$

COZ042>045-048>051-090-091-252000-
...NORTHEAST COLORADO...

CITY           SKY/WX    TMP DP  RH WIND       PRES   REMARKS
GREELEY ARPT   FAIR      28  20  71 NE8       29.91F WCI  20
AKRON          FAIR      29  17  61 NW8       29.91F WCI  21
BURLINGTON     FAIR      39  10  30 N6        29.93F
WRAY           NOT AVBL
STERLING       FAIR      32  18  55 NW7       29.92F WCI  26
HOLYOKE        FAIR      34  19  55 NW15      29.94F WCI  24
FORT MORGAN    FAIR      29  20  70 CALM      29.92F
$$

COZ086-089-092>099-252000-
...SOUTHEAST COLORADO...

CITY           SKY/WX    TMP DP  RH WIND       PRES   REMARKS
PUEBLO         FAIR      40  -1  18 VRB6      29.90F
LA JUNTA       FAIR      42   6  22 W9        29.93F
LAMAR          FAIR      40  10  29 W8        29.94F
SPRINGFIELD      N/A     43   7  22 W9G18     29.93F
$$




USA.gov is the U.S. government's official web portal to all federal, state and local government web resources and services.